DW4248 Weather Reports


Display with metric or nautical units.
time (UTC)temp
F
wind
direction
speed
MPH
gust
MPH
rain 1hr
in
rain 24hr
in
rain mn
in
humidity
%
barometer
mb
20260506131803 48 330 0.0 3.0 0.00 0.52 0.08 97 1015.6
20260506130904 48 337 1.0 5.0 0.00 0.52 0.08 97 1015.5
20260506130004 48 340 0.0 2.0 0.00 0.53 0.08 97 1015.3
20260506125403 47 347 0.0 2.0 0.00 0.54 0.08 97 1015.2
20260506124503 47 5 0.0 1.0 0.00 0.55 0.08 97 1015.1
20260506123603 47 274 0.0 2.0 0.00 0.56 0.08 97 1015.1
20260506122703 47 321 0.0 2.0 0.00 0.56 0.08 97 1015.1
20260506121803 47 325 0.0 1.0 0.00 0.57 0.08 97 1015.0
20260506120903 47 0 0.0 0.0 0.00 0.57 0.08 97 1014.6
20260506120003 47 325 0.0 1.0 0.00 0.59 0.08 97 1014.7
20260506115424 47 221 0.0 1.0 0.00 0.66 0.08 97 1014.8
20260506114503 47 214 0.0 2.0 0.00 0.67 0.08 97 1015.0
20260506113603 47 329 0.0 1.0 0.00 0.67 0.08 97 1014.7
20260506112724 47 325 0.0 2.0 0.00 0.67 0.08 97 1014.8
20260506111803 47 244 0.0 2.0 0.00 0.67 0.08 97 1014.3
20260506110903 47 334 0.0 1.0 0.00 0.69 0.08 96 1014.2
20260506110003 47 333 0.0 1.0 0.01 0.71 0.08 96 1013.4
20260506105403 47 333 0.0 1.0 0.01 0.71 0.08 96 1013.5
20260506104504 47 0 0.0 1.0 0.01 0.71 0.08 96 1013.1
20260506103603 47 0 0.0 0.0 0.02 0.71 0.08 96 1012.6
20260506102703 47 0 0.0 0.0 0.02 0.71 0.08 96 1012.6
20260506101803 47 0 0.0 0.0 0.02 0.71 0.08 96 1012.8
20260506100903 47 335 0.0 1.0 0.02 0.71 0.08 96 1012.9
20260506100004 47 339 0.0 1.0 0.01 0.70 0.07 96 1012.9
20260506095403 47 353 0.0 1.0 0.01 0.70 0.07 96 1012.9
20260506094503 46 63 0.0 1.0 0.01 0.70 0.07 96 1012.7
20260506093603 47 347 0.0 2.0 0.00 0.69 0.06 96 1012.9
20260506092703 47 0 0.0 1.0 0.01 0.69 0.06 96 1013.0
20260506091803 47 0 0.0 0.0 0.01 0.69 0.06 96 1012.9
20260506090903 47 0 0.0 0.0 0.01 0.69 0.06 96 1013.0
20260506090003 47 211 0.0 1.0 0.01 0.69 0.06 96 1013.4
20260506085403 47 329 0.0 1.0 0.01 0.69 0.06 96 1013.4
20260506084503 47 0 0.0 1.0 0.01 0.69 0.06 96 1013.0
20260506083603 47 0 0.0 1.0 0.01 0.69 0.06 96 1012.8
20260506082703 47 201 0.0 1.0 0.00 0.68 0.05 96 1012.6
20260506081803 47 0 0.0 0.0 0.00 0.68 0.05 96 1012.9
20260506080903 47 334 0.0 2.0 0.00 0.68 0.05 96 1013.1
20260506072703 46 321 0.0 1.0 0.01 0.68 0.05 96 1012.3
20260506071803 46 321 0.0 2.0 0.01 0.68 0.05 96 1012.6
20260506070903 46 323 0.0 3.0 0.01 0.68 0.05 96 1013.0
20260506061803 47 0 0.0 1.0 0.03 0.67 0.04 96 1012.5
20260506060924 46 0 0.0 0.0 0.04 0.67 0.04 95 1012.4
20260506050903 47 327 0.0 2.0 0.01 0.63 0.00 95 1012.4
20260506044503 47 328 0.0 1.0 0.02 0.63 0.63 95 1012.3
20260506043603 47 329 0.0 1.0 0.02 0.63 0.63 95 1012.1
20260506042703 47 0 0.0 0.0 0.02 0.63 0.63 95 1012.3
20260506041803 47 330 0.0 1.0 0.01 0.62 0.62 95 1012.5
20260506040903 47 329 0.0 1.0 0.01 0.62 0.62 95 1012.1
20260506040003 47 333 0.0 1.0 0.00 0.61 0.61 95 1012.5
20260506035403 47 334 0.0 2.0 0.00 0.61 0.61 95 1012.7
20260506034503 46 333 1.0 3.0 0.00 0.61 0.61 95 1012.6
20260506033603 47 328 0.0 2.0 0.00 0.61 0.61 95 1012.9
20260506032703 46 326 0.0 1.0 0.00 0.61 0.61 95 1012.3
20260506031803 46 0 0.0 1.0 0.01 0.61 0.61 95 1012.2
20260506030903 46 0 0.0 0.0 0.01 0.61 0.61 95 1012.0
20260506030003 46 300 0.0 1.0 0.02 0.61 0.61 94 1011.7
20260506025403 46 298 0.0 1.0 0.03 0.61 0.61 94 1011.5
20260506024524 46 0 0.0 1.0 0.04 0.61 0.61 94 1011.6
20260506023603 46 0 0.0 0.0 0.05 0.61 0.61 94 1011.8
20260506022703 46 0 0.0 0.0 0.07 0.61 0.61 94 1011.8
20260506021803 46 0 0.0 0.0 0.06 0.60 0.60 94 1011.8
20260506020903 46 0 0.0 1.0 0.07 0.60 0.60 94 1011.9
20260506020004 46 317 0.0 1.0 0.07 0.59 0.59 94 1011.7
20260506015403 46 302 0.0 1.0 0.07 0.58 0.58 94 1011.5
20260506014503 46 322 0.0 1.0 0.09 0.57 0.57 94 1011.8
20260506013603 46 321 0.0 1.0 0.10 0.56 0.56 94 1011.9
20260506012726 46 325 0.0 2.0 0.08 0.54 0.54 94 1010.7
20260506011803 46 120 0.0 1.0 0.08 0.54 0.54 94 1011.5
20260506010924 46 0 0.0 1.0 0.08 0.53 0.53 93 1011.0
20260506010003 46 0 0.0 0.0 0.09 0.52 0.52 93 1010.9
20260506005424 46 322 0.0 3.0 0.11 0.51 0.51 93 1010.8
20260506004504 46 320 0.0 5.0 0.09 0.48 0.48 93 1010.7
20260506003603 46 323 0.0 2.0 0.10 0.46 0.46 93 1011.3
20260506002703 46 319 0.0 2.0 0.14 0.46 0.46 94 1010.9
20260506001803 47 322 0.0 2.0 0.18 0.46 0.46 94 1010.6
20260506000903 47 325 0.0 1.0 0.18 0.45 0.45 93 1010.6
20260506000003 47 325 0.0 5.0 0.17 0.43 0.43 93 1010.4
20260505235403 47 325 1.0 5.0 0.14 0.40 0.40 93 1010.5
20260505234503 47 325 0.0 3.0 0.13 0.39 0.39 93 1010.1
20260505233603 47 324 1.0 3.0 0.10 0.36 0.36 92 1010.3
20260505232703 48 322 0.0 2.0 0.06 0.32 0.32 91 1009.6
20260505231803 48 324 1.0 3.0 0.02 0.28 0.28 91 1010.7
20260505230904 48 324 1.0 6.0 0.01 0.27 0.27 91 1010.0
20260505230003 48 325 0.0 5.0 0.00 0.26 0.26 91 1010.2
20260505225403 48 325 0.0 5.0 0.00 0.26 0.26 91 1009.9
20260505224503 48 323 1.0 6.0 0.00 0.26 0.26 91 1009.5
20260505223603 48 325 1.0 4.0 0.00 0.26 0.26 91 1009.4
20260505222703 48 325 0.0 1.0 0.00 0.26 0.26 92 1009.3
20260505221803 48 320 0.0 3.0 0.00 0.26 0.26 92 1009.5
20260505220903 48 324 1.0 3.0 0.01 0.26 0.26 92 1009.7
20260505220003 48 323 0.0 3.0 0.01 0.26 0.26 92 1009.5
20260505215424 48 326 1.0 4.0 0.01 0.26 0.26 92 1009.5
20260505214503 48 325 1.0 6.0 0.01 0.26 0.26 92 1009.7
20260505213603 48 324 0.0 3.0 0.01 0.26 0.26 92 1010.0
20260505212703 48 325 0.0 3.0 0.01 0.26 0.26 92 1009.7
20260505211803 48 327 0.0 1.0 0.01 0.26 0.26 92 1009.5
20260505210903 48 324 0.0 2.0 0.02 0.25 0.25 92 1010.0
20260505210003 48 326 1.0 3.0 0.04 0.25 0.25 92 1010.3
20260505205403 48 326 1.0 6.0 0.04 0.25 0.25 92 1010.2
20260505204503 48 326 1.0 5.0 0.04 0.25 0.25 91 1010.3
20260505203624 48 325 1.0 5.0 0.04 0.25 0.25 91 1010.2
20260505202703 48 322 2.0 6.0 0.04 0.25 0.25 90 1010.4
20260505201824 48 322 1.0 5.0 0.04 0.25 0.25 90 1010.3
20260505200003 49 322 1.0 5.0 0.00 0.21 0.21 89 1010.7
20260505195403 49 325 2.0 6.0 0.00 0.21 0.21 89 1010.3
20260505194503 49 327 2.0 6.0 0.00 0.21 0.21 88 1010.6
20260505193603 49 324 1.0 6.0 0.00 0.21 0.21 88 1010.9
20260505192724 49 326 1.0 4.0 0.01 0.21 0.21 87 1010.8
20260505191803 49 323 1.0 8.0 0.02 0.21 0.21 86 1010.8
20260505190903 50 327 2.0 9.0 0.02 0.21 0.21 85 1010.5
20260505190004 50 330 2.0 8.0 0.02 0.21 0.21 85 1010.5
20260505185403 50 323 2.0 11.0 0.02 0.21 0.21 85 1010.5
20260505184503 51 327 2.0 8.0 0.02 0.21 0.21 86 1010.2
20260505183603 51 323 2.0 5.0 0.02 0.21 0.21 84 1010.4
20260505182703 52 326 3.0 9.0 0.01 0.20 0.20 81 1010.9
20260505181824 53 324 2.0 8.0 0.00 0.19 0.19 79 1010.6
20260505180903 53 329 2.0 9.0 0.00 0.19 0.19 80 1010.4
20260505180003 53 321 0.0 3.0 0.00 0.20 0.19 80 1010.7
20260505175403 53 324 0.0 1.0 0.00 0.20 0.19 80 1011.0
20260505174524 53 321 1.0 4.0 0.00 0.21 0.19 80 1011.0
20260505173603 53 323 1.0 4.0 0.00 0.22 0.19 81 1011.1
20260505172703 53 321 2.0 6.0 0.00 0.26 0.19 80 1010.8
20260505171803 53 323 1.0 4.0 0.00 0.32 0.19 81 1010.7
20260505170924 54 325 1.0 4.0 0.00 0.35 0.19 78 1010.8
20260505170003 54 326 0.0 5.0 0.00 0.35 0.19 76 1010.3
20260505165424 55 325 0.0 5.0 0.00 0.36 0.19 75 1010.1
20260505164503 55 0 0.0 1.0 0.00 0.38 0.19 74 1010.0
20260505163603 55 327 0.0 3.0 0.00 0.41 0.19 72 1010.0
20260505162703 55 0 0.0 0.0 0.00 0.44 0.19 74 1009.8
20260505161803 55 322 0.0 2.0 0.00 0.44 0.19 73 1009.9
20260505160924 55 323 0.0 2.0 0.00 0.44 0.19 70 1009.9
20260505152703 54 324 2.0 9.0 0.00 0.44 0.19 77 1009.6
20260505151803 54 326 1.0 4.0 0.00 0.44 0.19 78 1009.6
20260505150903 53 325 2.0 8.0 0.00 0.44 0.19 79 1009.5